Weather History for Bennington, VT

Change the Weather History Date:

Monday, January 21, 2013

  Actual Average Record
Temperature  
Mean Temperature 19 °F 21 °F  
Max Temperature 23 °F 31 °F - ()
Min Temperature 15 °F 11 °F - ()
Degree Days  
Heating Degree Days 46 44  
Month to date heating degree days 792 920  
Since 1 July heating degree days 3237 3692  
Cooling Degree Days 0 0  
Month to date cooling degree days 0 0  
Year to date cooling degree days 0 0  
Moisture  
Dew Point 9 °F    
Average Humidity 62    
Maximum Humidity 80    
Minimum Humidity 44    
Precipitation  
Precipitation T in 0.08 in - ()
Month to date precipitation 0.44 2.00  
Year to date precipitation 0.44 2.00  
Sea Level Pressure  
Sea Level Pressure 29.92 in    
Wind  
Wind Speed 4 mph (WSW)    
Max Wind Speed 15 mph    
Max Gust Speed 24 mph    
Visibility 9 miles    
Events Snow    
T = Trace of Precipitation, MM = Missing Value Source: NWS Daily Summary

Daily Weather History Graph

Daily Weather History Graph

Search for Another Location

Airport:

Trip Planner

Search our weather history database for the weather conditions in past years. The results will help you decide how hot, cold, wet, or windy it might be!

Date:

Astronomy

Jan. 21, 2013 Rise Set
Actual Time 7:17 AM EST 4:51 PM EST
Civil Twilight 6:46 AM EST 5:22 PM EST
Nautical Twilight 6:11 AM EST 5:57 PM EST
Astronomical Twilight 5:38 AM EST 6:31 PM EST
Moon 12:29 PM EST (1/21) 2:43 AM EST (1/21)
Length of Visible Light 10h 36m
Length of Day
9h 34m
Waxing Gibbous, 75% of the Moon is Illuminated
Jan 21
Waxing Gibbous
Jan 26
Full
Feb 3
Last Quarter
Feb 10
New
Feb 17
First Quarter

Hourly Weather History & Observations

Time (EST) Temp. Windchill Dew Point Humidity Pressure Visibility Wind Dir Wind Speed Gust Speed Precip Events Conditions
12:54 AM 19.0 °F 6.8 °F 3.9 °F 52% 29.99 in 10.0 mi West 11.5 mph 18.4 mph N/A   Scattered Clouds
1:54 AM 19.0 °F 7.5 °F 3.0 °F 50% 30.01 in 10.0 mi WNW 10.4 mph - N/A   Overcast
2:54 AM 19.0 °F 9.0 °F 3.0 °F 50% 30.02 in 10.0 mi WNW 8.1 mph - N/A   Overcast
3:54 AM 18.0 °F 9.8 °F 1.9 °F 50% 30.02 in 10.0 mi West 5.8 mph - N/A   Overcast
4:54 AM 18.0 °F 12.7 °F 1.9 °F 50% 30.02 in 10.0 mi West 3.5 mph - N/A   Overcast
5:54 AM 18.0 °F 12.7 °F 3.0 °F 52% 30.04 in 10.0 mi WSW 3.5 mph - N/A   Overcast
6:54 AM 17.1 °F 10.0 °F 3.0 °F 54% 30.04 in 10.0 mi WSW 4.6 mph - N/A   Overcast
7:54 AM 18.0 °F 12.7 °F 3.9 °F 54% 30.03 in 10.0 mi Variable 3.5 mph - N/A   Overcast
8:54 AM 19.0 °F 12.3 °F 6.1 °F 57% 30.06 in 10.0 mi NW 4.6 mph - N/A   Scattered Clouds
9:54 AM 19.0 °F 12.3 °F 7.0 °F 59% 30.05 in 10.0 mi West 4.6 mph - N/A   Overcast
10:54 AM 21.0 °F 14.6 °F 7.0 °F 55% 30.02 in 10.0 mi South 4.6 mph - N/A   Overcast
11:54 AM 21.9 °F 15.7 °F 5.0 °F 48% 29.98 in 10.0 mi SSW 4.6 mph - N/A   Overcast
12:54 PM 23.0 °F 18.4 °F 5.0 °F 46% 29.95 in 10.0 mi Variable 3.5 mph - N/A   Overcast
1:54 PM 23.0 °F - 3.9 °F 44% 29.94 in 10.0 mi Calm Calm - N/A   Overcast
2:54 PM 23.0 °F 17.0 °F 6.1 °F 48% 29.91 in 10.0 mi WSW 4.6 mph - N/A   Overcast
3:54 PM 21.9 °F 15.7 °F 9.0 °F 58% 29.90 in 9.0 mi SSW 4.6 mph - N/A   Overcast
4:54 PM 21.0 °F 13.4 °F 12.9 °F 71% 29.88 in 8.0 mi ESE 5.8 mph - N/A   Overcast
5:47 PM 19.4 °F - 15.8 °F 86% 29.84 in 2.5 mi Calm Calm - 0.00 in Snow Light Snow
5:54 PM 21.0 °F - 16.0 °F 81% 29.88 in 2.5 mi Calm Calm - 0.00 in Snow Light Snow
6:05 PM 21.2 °F 16.4 °F 15.8 °F 80% 29.83 in 2.5 mi ENE 3.5 mph - 0.00 in Snow Light Snow
6:14 PM 21.2 °F 16.4 °F 15.8 °F 80% 29.83 in 3.0 mi ENE 3.5 mph - 0.00 in Snow Light Snow
6:54 PM 21.0 °F 16.2 °F 16.0 °F 81% 29.88 in 5.0 mi Variable 3.5 mph - 0.00 in   Haze
7:54 PM 21.0 °F - 15.1 °F 78% 29.86 in 10.0 mi Calm Calm - N/A   Overcast
8:54 PM 19.9 °F 13.4 °F 12.9 °F 74% 29.84 in 10.0 mi South 4.6 mph - N/A   Clear
9:54 PM 19.0 °F - 12.0 °F 74% 29.82 in 10.0 mi Calm Calm - N/A   Clear
10:54 PM 17.1 °F - 12.9 °F 84% 29.78 in 10.0 mi Calm Calm - N/A   Mostly Cloudy
11:35 PM 19.4 °F 11.5 °F 14.0 °F 80% 29.74 in 10.0 mi SW 5.8 mph - N/A   Mostly Cloudy
11:52 PM 19.4 °F 9.5 °F 14.0 °F 80% 29.73 in 10.0 mi WSW 8.1 mph - N/A   Mostly Cloudy
11:54 PM 19.9 °F 10.1 °F 15.1 °F 81% 29.77 in 10.0 mi WSW 8.1 mph - N/A   Overcast